Location: Sternwarte Stuttgart
(48.7824°N, 9.1965°E)
Time: 14:38:12
(UTC+00:00)

ISS - Visible Passes

Search period start: 22 November 2019 00:00
Search period end: 02 December 2019 00:00
Orbit: 412 x 421 km, 51.6° (Epoch: 22 November)

Date Brightness Start Highest point End Pass type
(mag) Time Alt. Az. Time Alt. Az. Time Alt. Az.
22 Nov -1.8 17:28:07 10° S 17:29:53 18° SSE 17:29:53 18° SSE visible
23 Nov -1.5 16:40:53 10° SSE 16:42:24 13° SE 16:43:39 11° ESE visible
23 Nov -1.4 18:15:17 10° SW 18:16:34 21° SW 18:16:34 21° SW visible
24 Nov -3.1 17:27:04 10° SW 17:30:14 41° SSE 17:30:15 41° SSE visible
25 Nov -2.4 16:39:02 10° SSW 16:41:55 27° SE 16:43:52 16° E visible
25 Nov -1.6 18:15:05 10° WSW 18:16:46 27° W 18:16:46 27° W visible
26 Nov -3.9 17:26:39 10° WSW 17:30:00 81° SSE 17:30:19 70° E visible
27 Nov -3.5 16:38:17 10° SW 16:41:34 57° SSE 16:43:49 19° ENE visible
27 Nov -1.5 18:15:04 10° W 18:16:43 25° WNW 18:16:43 25° WNW visible
28 Nov -3.7 17:26:31 10° W 17:29:51 63° NNW 17:30:11 59° NNE visible
29 Nov -3.8 16:38:00 10° WSW 16:41:20 79° NNW 16:43:37 19° ENE visible
29 Nov -1.4 18:15:01 10° WNW 18:16:30 23° WNW 18:16:30 23° WNW visible
30 Nov -3.4 17:26:28 10° W 17:29:44 50° N 17:29:56 49° N visible
01 Dec -3.4 16:37:52 10° W 16:41:10 55° N 16:43:21 19° ENE visible
01 Dec -1.4 18:14:52 10° WNW 18:16:14 22° WNW 18:16:14 22° WNW visible
